DELTA 1 DEB, 1529

Orbit data source: Space-Track

DELTA 1 DEB, 1529 is space debris in SSO originally from a launch on Fri, 02 Jul 1965 UTC launched from the Air Force Eastern Test Range (AFETR). Debris objects in space refer to the collection of defunct objects orbiting the Earth. Examples of debris include non-operational satellites, rocket bodies, and fragments generated from explosions, collisions, or faulty payload assembly.

Loading next visibility...
Identifier
1529, 1965-051D
Orbit
SSO
Country
Flag of USUS
Related business
Manufacturer
Unknown
Mission
Spacecraft
Bus & Motor
Unknown
Mass
1 kg wet, 1 kg dry
Launch date (UTC)
1965-07-02 (60 years ago)
Launch vehicle
Unknown
Launch site
Air Force Eastern Test Range (AFETR)
Object type
Payload
Rocket body
Debris
Shape & HBR
Cyl + 1 Cable, 1.8 m
Radar Cross Section
3.500 m², Small (<0.1 m²)

Expand to show TLE details & history
Last TLE update: 6 hours ago

TLE from 6 hours ago
0 DELTA 1 DEB
1 01529U 65051D   25242.89494632  .00000300  00000-0  14973-3 0  9994
2 01529  99.0242 110.4613 0035856 340.8926  19.0904 14.24094706114129
Epoch: 2025-08-30T21:28Z
TLE epoch observation values (Epoch: 2025-08-30T21:28:43.362Z)
Latitude
-0.00005°
Longitude
168.95795°
Altitude
790.091 km
Speed
7.471 km/s
True Right ascension
07h 21m 50s
True Declination
0° 00' 00"
Sunlit
Object was in daylight at epoch
Visualization orbit readout
Latitude
Unknown
Longitude
Unknown
Altitude
Unknown
Speed
Unknown
Apparent Right ascension
Unknown
Apparent Declination
Unknown
Sunlit
N/A
Visualization observer readout
Local Sidereal Time
19:25:41
Azimuth
Unknown
Elevation
Unknown
Doppler factor
Unknown
Orbital elements
Apogee altitude
834.476 km
Perigee altitude
782.937 km
Semi-major axis
7,186.843 km
Eccentricity
0.00359
Inclination
99.0242°
RAAN
110.4613°
Arg. of periapsis
340.8926°
True anomaly
19.22535°
Mean anomaly
19.0904°
Eccentric anomaly
19.15782°
Mean motion
3.56234 °/min
Orbital period
101.06 mins
BSTAR
0.00014973
Loading maneuver chart data...
Computing Atmospheric mass density...
Loading historical data...
Loading historical data...
Loading historical data...
Loading historical data...
Loading historical data...
Loading historical data...
Loading historical data...
Other satellites on launch #51 in the year 1965 (1965-07-02 UTC)

Documentation

Showing up to 5 results
|